This demonstration page uses our WeatherBlox Daily Observations layout. Learn more.

40.92945, -100.16068

Hourly Observations for January 21, 2017

Temp ( °F °C ) Dew Point ( °F °C ) Humidity (%) Winds ( mph kmh ) Pressure ( in mb ) Visibility ( mi km ) Precip ( " mm )
12:15 am 00:15 Mostly Cloudy 33 0.5 32 -0.1 96 96 W 6 9 29.5 999 7 11.26538 0 0
12:35 am 00:35 Mostly Cloudy 33 0.7 32 0 95 95 WNW 3 6 29.5 999 7 11.26538 0 0
12:55 am 00:55 Cloudy 33 0.6 32 0 96 96 WNW 5 7 29.47 998 7 11.26538 0 0
1:15 am 01:15 Cloudy 33 0.8 32 0 94 94 Calm 29.47 998 10 16.0934 0 0
1:35 am 01:35 Cloudy 34 0.9 32 0 94 94 W 5 7 29.5 999 10 16.0934 0 0
1:55 am 01:55 Cloudy 34 1.2 32 0.1 92 92 W 5 7 29.44 997 10 16.0934 0 0
2:15 am 02:15 Cloudy 34 1.1 32 0 92 92 W 5 7 29.5 999 10 16.0934 0 0
2:35 am 02:35 Cloudy 35 1.5 33 0.3 92 92 W 6 9 29.47 998 10 16.0934 0 0
2:55 am 02:55 Cloudy 35 1.7 32 0.2 90 90 W 6 9 29.47 998 10 16.0934 0 0
3:15 am 03:15 Cloudy 35 1.4 32 0 91 91 WNW 3 6 29.47 998 10 16.0934 0 0
3:35 am 03:35 Partly Cloudy 33 0.8 32 -0.2 93 93 Calm 29.5 999 10 16.0934 0 0
3:55 am 03:55 Clear 32 0.1 31 -0.6 95 95 NW 5 7 29.5 999 10 16.0934 0 0
4:15 am 04:15 Clear 31 -0.6 29 -1.5 94 94 W 7 11 29.5 999 10 16.0934 0 0
4:35 am 04:35 Clear 31 -0.5 30 -1.3 94 94 W 6 9 29.5 999 10 16.0934 0 0
4:55 am 04:55 Clear 31 -0.6 29 -1.5 94 94 WNW 5 7 29.5 999 10 16.0934 0 0
5:15 am 05:15 Clear 30 -0.9 29 -1.7 94 94 WNW 3 6 29.5 999 10 16.0934 0 0
5:35 am 05:35 Clear 31 -0.8 29 -1.6 94 94 W 6 9 29.5 999 10 16.0934 0 0
5:55 am 05:55 Clear 31 -0.5 30 -1.3 94 94 W 3 6 29.5 999 10 16.0934 0 0
6:15 am 06:15 Clear 29 -1.5 28 -2.3 94 94 Calm 29.5 999 10 16.0934 0 0
6:35 am 06:35 Clear 29 -1.6 28 -2.4 94 94 Calm 29.5 999 10 16.0934 0 0
6:55 am 06:55 Clear 30 -1.1 29 -1.9 94 94 Calm 29.5 999 10 16.0934 0 0
7:15 am 07:15 Clear 31 -0.7 29 -1.4 95 95 W 5 7 29.5 999 7 11.26538 0 0
7:35 am 07:35 Clear 29 -1.4 28 -2.1 95 95 Calm 29.5 999 10 16.0934 0 0
7:55 am 07:55 Clear 27 -2.6 26 -3.4 94 94 Calm 29.53 1000 7 11.26538 0 0
8:15 am 08:15 Sunny with Mist and Fog 29 -1.8 28 -2.5 95 95 NNE 3 6 29.53 1000 4 6.43736 0 0
8:35 am 08:35 Sunny with Mist and Fog 29 -1.9 27 -2.6 95 95 Calm 29.56 1001 2 3.21868 0 0
8:55 am 08:55 Sunny with Mist and Fog 30 -1 29 -1.6 96 96 Calm 29.53 1000 3 4.82802 0 0
9:15 am 09:15 Sunny with Mist and Fog 32 0 31 -0.5 96 96 Calm 29.53 1000 4 6.43736 0 0
9:35 am 09:35 Sunny 33 0.8 32 0.1 95 95 Calm 29.53 1000 7 11.26538 0 0
9:55 am 09:55 Sunny 34 1.1 32 0.2 94 94 W 3 6 29.53 1000 10 16.0934 0 0
10:15 am 10:15 Sunny 36 2.1 33 0.5 89 89 WSW 5 7 29.5 999 10 16.0934 0 0
10:35 am 10:35 Sunny 38 3.1 33 0.6 84 84 W 5 7 29.5 999 10 16.0934 0 0
10:55 am 10:55 Sunny 39 3.7 33 0.7 81 81 WNW 6 9 29.5 999 10 16.0934 0 0
11:15 am 11:15 Sunny 40 4.4 33 0.8 78 78 NW 6 9 29.5 999 10 16.0934 0 0
11:35 am 11:35 Sunny 41 4.9 34 1 76 76 WNW 6 9 29.47 998 10 16.0934 0 0
11:55 am 11:55 Sunny 42 5.5 35 1.4 75 75 NW 6 9 29.47 998 10 16.0934 0 0
12:15 pm 12:15 Sunny 43 6.1 35 1.9 75 75 WNW 7 11 29.47 998 10 16.0934 0 0
12:35 pm 12:35 Sunny 44 6.6 36 2 73 73 WNW 6 9 29.47 998 10 16.0934 0 0
12:55 pm 12:55 Sunny 45 7 36 2 71 71 WNW 6 9 29.44 997 10 16.0934 0 0
1:15 pm 13:15 Sunny 46 7.5 36 2.1 69 69 WNW 3 6 29.44 997 10 16.0934 0 0
1:35 pm 13:35 Sunny 46 8 36 2.3 68 68 WNW 5 7 29.41 996 10 16.0934 0 0
1:55 pm 13:55 Sunny 47 8.1 36 2.2 67 67 Calm 29.41 996 10 16.0934 0 0
2:15 pm 14:15 Sunny 48 8.7 36 2.4 65 65 Calm 29.41 996 10 16.0934 0 0
2:35 pm 14:35 Sunny 48 8.9 35 1.9 62 62 Calm 29.41 996 10 16.0934 0 0
2:55 pm 14:55 Sunny 49 9.4 34 1.3 57 57 Calm 29.41 996 10 16.0934 0 0
3:15 pm 15:15 Sunny 50 9.8 33 0.7 53 53 Calm 29.41 996 10 16.0934 0 0
3:35 pm 15:35 Sunny 50 9.8 33 0.5 53 53 WNW 3 6 29.44 997 10 16.0934 0 0
3:55 pm 15:55 Sunny 50 10 32 0.1 51 51 WNW 3 6 29.44 997 10 16.0934 0 0
4:15 pm 16:15 Sunny 50 10 31 -0.3 49 49 NW 5 7 29.44 997 10 16.0934 0 0
4:35 pm 16:35 Sunny 49 9.6 32 0.2 52 52 NNW 6 9 29.44 997 10 16.0934 0 0
4:55 pm 16:55 Sunny 48 9 35 1.7 61 61 NNW 3 6 29.44 997 10 16.0934 0 0
5:15 pm 17:15 Sunny 46 7.6 35 1.5 66 66 NNW 3 6 29.5 999 10 16.0934 0 0
5:35 pm 17:35 Sunny 41 5 33 0.4 72 72 NNW 7 11 29.5 999 10 16.0934 0 0
5:55 pm 17:55 Clear 39 3.7 32 0.2 78 78 Calm 29.53 1000 10 16.0934 0 0
6:15 pm 18:15 Clear 40 4.2 33 0.7 78 78 Calm 29.53 1000 10 16.0934 0 0
6:35 pm 18:35 Clear 38 3.4 33 0.4 81 81 SSE 3 6 29.56 1001 10 16.0934 0 0
6:55 pm 18:55 Clear 37 2.8 32 0.1 83 83 Calm 29.56 1001 10 16.0934 0 0
7:15 pm 19:15 Clear 36 2 31 -0.3 85 85 Calm 29.59 1002 10 16.0934 0 0
7:35 pm 19:35 Clear 32 0.1 29 -1.8 87 87 Calm 29.59 1002 10 16.0934 0 0
7:55 pm 19:55 Clear 33 0.3 29 -1.6 87 87 Calm 29.62 1003 10 16.0934 0 0
8:15 pm 20:15 Clear 32 -0.1 29 -1.7 89 89 Calm 29.62 1003 10 16.0934 0 0
8:35 pm 20:35 Clear 32 0 29 -1.5 90 90 WNW 5 7 29.62 1003 10 16.0934 0 0
8:55 pm 20:55 Clear 33 0.5 30 -1.2 89 89 WNW 5 7 29.65 1004 10 16.0934 0 0
9:15 pm 21:15 Clear 31 -0.4 29 -1.8 90 90 NW 7 11 29.68 1005 10 16.0934 0 0
9:35 pm 21:35 Clear 30 -1 28 -2.5 90 90 NNW 3 6 29.68 1005 10 16.0934 0 0
9:55 pm 21:55 Clear 30 -1 28 -2.3 91 91 NW 3 6 29.68 1005 10 16.0934 0 0
10:15 pm 22:15 Clear 30 -1.2 28 -2.5 91 91 W 6 9 29.68 1005 10 16.0934 0 0
10:35 pm 22:35 Clear 30 -1.2 28 -2.3 92 92 WNW 6 9 29.71 1006 10 16.0934 0 0
10:55 pm 22:55 Clear 30 -1 28 -2.2 92 92 WNW 7 11 29.71 1006 10 16.0934 0 0
11:15 pm 23:15 Clear 29 -1.4 27 -2.6 92 92 NW 3 6 29.74 1007 10 16.0934 0 0
11:35 pm 23:35 Clear 29 -1.6 27 -2.7 92 92 WNW 5 7 29.74 1007 10 16.0934 0 0
11:55 pm 23:55 Clear 29 -1.6 27 -2.8 92 92 NNW 6 9 29.74 1007 10 16.0934 0 0

Powered by AerisWeather